This is the latest recevied weather packets stored in our database for station/object DG6HD-13. If no packets are shown the sender has not sent any weather packets the latest 10 day(s).
| Time | Temp. | Humidity | Pressure | Rain* | Wind** | Luminosity | Snow |
|---|---|---|---|---|---|---|---|
| 1788567345 | 15° C | 63% | 1008 hPa | - | - | - | - |
| 1788566444 | 15° C | 63% | 1008.1 hPa | - | - | - | - |
| 1788565543 | 15° C | 63% | 1008 hPa | - | - | - | - |
| 1788564692 | 15° C | 63% | 1008 hPa | - | - | - | - |
| 1788563741 | 15° C | 63% | 1007.8 hPa | - | - | - | - |
| 1788562840 | 15° C | 63% | 1007.7 hPa | - | - | - | - |
| 1788561939 | 16.67° C | 59% | 1007.6 hPa | - | - | - | - |
| 1788561038 | 15.56° C | 62% | 1007.6 hPa | - | - | - | - |
| 1788560137 | 15.56° C | 62% | 1007.3 hPa | - | - | - | - |
| 1788559237 | 15.56° C | 62% | 1007.3 hPa | - | - | - | - |
| 1788558336 | 15.56° C | 62% | 1007.2 hPa | - | - | - | - |
| 1788557435 | 16.11° C | 61% | 1007 hPa | - | - | - | - |
| 1788556534 | 15.56° C | 62% | 1006.9 hPa | - | - | - | - |
| 1788555633 | 15.56° C | 62% | 1006.8 hPa | - | - | - | - |
| 1788554733 | 16.11° C | 62% | 1006.6 hPa | - | - | - | - |
| 1788553832 | 16.11° C | 63% | 1006.5 hPa | - | - | - | - |
| 1788552931 | 16.11° C | 63% | 1006.2 hPa | - | - | - | - |
| 1788552030 | 16.11° C | 64% | 1006.2 hPa | - | - | - | - |
| 1788551129 | 16.11° C | 66% | 1005.9 hPa | - | - | - | - |
| 1788550228 | 16.67° C | 66% | 1005.6 hPa | - | - | - | - |
| 1788549327 | 16.67° C | 66% | 1005.4 hPa | - | - | - | - |
| 1788548427 | 16.67° C | 67% | 1005 hPa | - | - | - | - |
| 1788547526 | 16.67° C | 67% | 1005.1 hPa | - | - | - | - |
| 1788546625 | 17.78° C | 64% | 1004.9 hPa | - | - | - | - |
| 1788545746 | 16.67° C | 68% | 1004.5 hPa | - | - | - | - |
* Rain since midnight (hover to see other rain measurements)
** Current wind speed in m/s (hover to see current wind gust speed)